This demonstration page uses our WeatherBlox Daily Observations layout. Learn more.

Left ArrowRight Arrow

34.02893, -84.19858

Hourly Observations for May 30, 2022

Temp ( °F °C ) Dew Point ( °F °C ) Humidity (%) Winds ( mph kmh ) Pressure ( in mb ) Visibility ( mi km ) Precip ( " mm )
12:53 am 00:53 Clear 69 20.6 62 16.7 78 78 Calm 30.01 1016 10 16 0.00 0.00
1:53 am 01:53 Mostly Clear 67 19.4 62 16.7 84 84 Calm 30.01 1016 10 16 0.00 0.00
2:53 am 02:53 Clear 67 19.4 62 16.7 84 84 Calm 30.01 1016 10 16 0.00 0.00
3:53 am 03:53 Clear 67 19.4 62 16.7 84 84 Calm 30.01 1016 10 16 0.00 0.00
4:53 am 04:53 Clear 65 18.3 63 17.2 93 93 Calm 30.00 1016 10 16 0.00 0.00
5:53 am 05:53 Clear 65 18.3 63 17.2 93 93 Calm 30.02 1017 10 16 0.00 0.00
6:53 am 06:53 Sunny 66 18.9 64 17.8 93 93 Calm 30.04 1017 9 14 0.00 0.00
8:53 am 08:53 Sunny 74 23.3 68 20 82 82 Calm 30.06 1018 10 16 0.00 0.00
9:53 am 09:53 Sunny 77 25 68 20 74 74 VRB 3 6 30.07 1018 10 16 0.00 0.00
10:53 am 10:53 Sunny 81 27.2 69 20.6 67 67 Calm 30.06 1018 10 16 0.00 0.00
11:53 am 11:53 Sunny 81 27.2 69 20.6 67 67 NNE 8 13 30.06 1018 10 16 0.00 0.00
12:53 pm 12:53 Sunny 84 28.9 69 20.6 61 61 VRB 5 7 30.05 1018 10 16 0.00 0.00
1:53 pm 13:53 Mostly Sunny 86 30 68 20 55 55 VRB 6 9 30.04 1017 10 16 0.00 0.00
2:53 pm 14:53 Mostly Sunny 86 30 65 18.3 49 49 VRB 3 6 30.02 1017 10 16 0.00 0.00
3:53 pm 15:53 Sunny 86 30 64 17.8 48 48 VRB 6 9 30.01 1016 10 16 0.00 0.00
4:53 pm 16:53 Mostly Cloudy 86 30 64 17.8 48 48 VRB 3 6 29.99 1016 10 16 0.00 0.00
5:12 pm 17:12 Mostly Cloudy with Nearby Thunderstorms 85 29.4 64 17.8 50 50 VRB 3 6 29.98 1015 10 16 0.00 0.00
5:36 pm 17:36 Cloudy 82 27.8 66 18.9 58 58 SE 14 22 30.00 1016 10 16 0.00 0.00
5:53 pm 17:53 Mostly Cloudy 79 26.1 65 18.3 62 62 VRB 7 11 30.01 1016 10 16 0.00 0.00
6:53 pm 18:53 Mostly Cloudy 76 24.4 67 19.4 74 74 VRB 5 7 30.04 1017 10 16 0.00 0.00
7:53 pm 19:53 Sunny 73 22.8 66 18.9 79 79 SE 7 11 30.08 1019 10 16 0.00 0.00
8:53 pm 20:53 Cloudy 72 22.2 65 18.3 79 79 Calm 30.06 1018 10 16 0.00 0.00
9:53 pm 21:53 Clear 71 21.7 62 16.7 73 73 VRB 3 6 30.07 1018 10 16 0.00 0.00
10:53 pm 22:53 Clear 71 21.7 62 16.7 73 73 Calm 30.09 1019 10 16 0.00 0.00
11:53 pm 23:53 Clear 70 21.1 62 16.7 76 76 VRB 3 6 30.09 1019 10 16 0.00 0.00

Powered by AerisWeather